Zurück zum Katalog

SL-3 R/B

AktivPO
NORAD 13819·ROCKET BODY·🇷🇺 Russia

Gestartet Feb 16, 1983 von Plesetsk Cosmodrome

Loading…

Nächste Überflüge (nächste 24 Stunden)

TLE

AktuellSource: Space-Track

Epoche: Sep 14, 2026, 18:36 UTC

1 13819U 83010B   26257.77553813  .00014175  00000-0  23926-3 0  9998
2 13819  81.1002 129.4573 0015537 100.3075 259.9925 15.51358163387214

Verfolge SL-3 R/B in Echtzeit mit AllMySat

Download on the App Store